Regional Weather Roundup
Issued by NWS

Home | Current Version | Previous Version | Text Only | Print | Product List | Glossary Off
Versions: 1 2 3 4 5 6 7 8 9 10 11 12 13 14 15 16 17 18 19 20 21 22 23 24 25 26 27 28 29 30 31 32 33 34 35 36 37 38 39 40 41 42 43 44 45 46 47 48 49 50

000
ASUS43 KBIS 231702
RWRND

NORTH DAKOTA REGIONAL WEATHER ROUNDUP
NATIONAL WEATHER SERVICE BISMARCK ND
1200 PM CDT SAT SEP 23 2017

NOTE: "FAIR" INDICATES FEW OR NO CLOUDS BELOW 12,000 FEET WITH NO
SIGNIFICANT WEATHER AND/OR OBSTRUCTIONS TO VISIBILITY.


NDZ001>003-009>011-017-231800-
NORTHWEST NORTH DAKOTA

CITY           SKY/WX    TMP DP  RH WIND       PRES   REMARKS
WILLISTON      CLOUDY    49  42  77 NE6       30.16S
MINOT          CLOUDY    53  44  71 NW10      30.13R
MINOT AFB      CLOUDY    51  43  75 N8        30.12R
$$

NDZ018>021-031>035-040>046-231800-
SOUTHWEST NORTH DAKOTA

CITY           SKY/WX    TMP DP  RH WIND       PRES   REMARKS
BISMARCK       CLOUDY    51  47  86 N7        30.13R
DICKINSON      CLOUDY    46  43  89 NE6       30.13R
GARRISON         N/A     50  43  77 N8        30.13R
HETTINGER ARPT CLOUDY    46  41  82 N7        30.13F
$$

NDZ004>008-012>016-024-026-027-054-231800-
NORTHEAST NORTH DAKOTA

CITY           SKY/WX    TMP DP  RH WIND       PRES   REMARKS
GRAND FORKS    CLOUDY    57  50  77 N14       30.05R
GRND FRKS AFB  CLOUDY    57  47  71 N13G18    30.06R
DEVILS LAKE    CLOUDY    51  45  79 NW10      30.11R
$$

NDZ022-023-025-028>030-036>039-047>053-231800-
SOUTHEAST NORTH DAKOTA

CITY           SKY/WX    TMP DP  RH WIND       PRES   REMARKS
FARGO          CLOUDY    55  50  83 N10       30.04R
JAMESTOWN      CLOUDY    58  47  66 N13G21    30.05F
$$





USA.gov is the U.S. government's official web portal to all federal, state and local government web resources and services.